ProjectID,Date,Electric Generation,Electric Utility Import,Facility Electric Load
,YYYY-MM-DD,kW,kW,kW
511,2009-10-21,7.119791666666667,,26.380208333333336
511,2009-10-22,19.697916666666668,,60.703125
511,2009-10-23,0.0,,43.838541666666664
511,2009-10-24,6.552083333333333,,46.333333333333336
511,2009-10-25,3.0104166666666665,,47.21875
511,2009-10-26,13.4375,,35.5625
511,2009-10-27,20.828125,,40.09895833333333
511,2009-10-28,21.208333333333332,,42.041666666666664
511,2009-10-29,22.802083333333332,,42.635416666666664
511,2009-10-30,21.765625,,47.671875
511,2009-10-31,21.4375,,46.95833333333333
511,2009-11-01,23.015625,,50.390625
511,2009-11-02,22.911458333333332,,50.494791666666664
511,2009-11-03,22.484375,,49.98958333333333
511,2009-11-04,22.588541666666668,,50.364583333333336
511,2009-11-05,21.958333333333332,,49.40625
511,2009-11-06,22.322916666666668,,50.54166666666667
511,2009-11-07,21.526041666666668,,48.614583333333336
511,2009-11-08,21.291666666666668,,48.078125
511,2009-11-09,20.442708333333332,,45.89583333333333
511,2009-11-10,21.963541666666668,,49.177083333333336
511,2009-11-11,22.723958333333332,,50.94270833333333
511,2009-11-12,19.963541666666668,,42.40625
511,2009-11-13,22.698958333333334,,34.813541666666666
511,2009-11-14,5.416666666666667,,12.025
511,2009-11-15,0.0,,0.0
511,2009-11-16,0.0,,0.0
511,2009-11-17,0.0,,0.0
511,2009-11-18,0.0,,0.0
511,2009-11-19,0.0,,0.0
511,2009-11-20,0.0,,0.0
511,2009-11-21,0.0,,0.0
511,2009-11-22,0.0,,0.0
511,2009-11-23,0.0,,0.0
511,2009-11-24,0.0,,0.0
511,2009-11-25,7.358333333333333,,16.300041666666665
511,2009-11-26,20.416708333333332,,44.645875000000004
511,2009-11-27,21.90833333333333,,48.187458333333325
511,2009-11-28,21.766750000000002,,47.637666666666675
511,2009-11-29,20.929166666666667,,45.87079166666667
511,2009-11-30,21.450166666666664,,47.60854166666667
511,2009-12-01,21.676041666666666,,47.69891666666666
511,2009-12-02,20.723958333333332,,45.86458333333333
511,2009-12-03,19.822916666666668,,44.583333333333336
511,2009-12-04,21.78125,,48.734375
511,2009-12-05,21.953125,,49.1875
511,2009-12-06,22.098958333333332,,49.328125
511,2009-12-07,21.786458333333332,,48.75
511,2009-12-08,21.651041666666668,,48.33854166666667
511,2009-12-09,20.614583333333332,,45.729166666666664
511,2009-12-10,21.515625,,47.8125
511,2009-12-11,22.109375,,48.484375
511,2009-12-12,21.723958333333332,,47.447916666666664
511,2009-12-13,20.734375,,46.421875
511,2009-12-14,20.161458333333332,,43.64583333333333
511,2009-12-15,20.916666666666668,,46.58854166666667
511,2009-12-16,21.526041666666668,,47.958333333333336
511,2009-12-17,22.270833333333332,,48.20833333333333
511,2009-12-18,22.057291666666668,,47.921875
511,2009-12-19,20.505208333333332,,46.640625
511,2009-12-20,21.421875,,47.47916666666667
511,2009-12-21,11.947916666666666,,35.677083333333336
511,2009-12-22,13.979166666666666,,47.109375
511,2009-12-23,22.020833333333332,,77.44270833333333
511,2009-12-24,20.0,,70.14583333333334
511,2009-12-25,20.348958333333332,,73.80729166666667
511,2009-12-26,19.671875,,71.125
511,2009-12-27,20.130208333333332,,72.95833333333333
511,2009-12-28,20.286458333333332,,69.15104166666667
511,2009-12-29,8.052083333333334,,20.411458333333336
511,2009-12-30,0.0,,0.0
511,2009-12-31,8.890625,,32.66145833333333
511,2010-01-01,20.901041666666668,,76.21875
511,2010-01-02,21.739583333333332,,77.734375
511,2010-01-03,22.125,,77.70833333333334
511,2010-01-04,21.776041666666668,,76.421875
511,2010-01-05,21.765625,,75.79166666666666
511,2010-01-06,21.848958333333332,,75.56770833333333
511,2010-01-07,21.979166666666668,,75.546875
511,2010-01-08,21.401041666666668,,74.22395833333333
511,2010-01-09,21.59375,,75.09895833333334
511,2010-01-10,22.364583333333332,,68.71875
511,2010-01-11,21.427083333333332,,74.25520833333333
511,2010-01-12,21.463541666666668,,73.99479166666667
511,2010-01-13,21.973958333333332,,74.77604166666667
511,2010-01-14,21.651041666666668,,72.79166666666667
511,2010-01-15,21.755208333333332,,73.10416666666667
511,2010-01-16,22.598958333333332,,73.78645833333333
511,2010-01-17,23.328125,,73.03125
511,2010-01-18,22.942708333333332,,73.25520833333333
511,2010-01-19,22.567708333333332,,72.73958333333333
511,2010-01-20,22.734375,,73.36979166666666
511,2010-01-21,22.473958333333332,,72.47395833333333
511,2010-01-22,21.854166666666668,,70.91145833333333
511,2010-01-23,21.489583333333332,,70.22395833333333
511,2010-01-24,20.796875,,68.88020833333334
511,2010-01-25,20.505208333333332,,68.015625
511,2010-01-26,21.786458333333332,,71.99479166666667
511,2010-01-27,22.822916666666668,,73.63541666666667
511,2010-01-28,23.354166666666668,,74.703125
511,2010-01-29,24.28125,,77.76041666666666
511,2010-01-30,24.666666666666668,,79.82291666666667
511,2010-01-31,24.375,,71.96354166666666
511,2010-02-01,23.729166666666668,,76.92708333333333
511,2010-02-02,23.447916666666668,,76.66666666666667
511,2010-02-03,23.020833333333332,,75.13020833333333
511,2010-02-04,23.270833333333332,,75.84895833333333
511,2010-02-05,22.901041666666668,,74.234375
511,2010-02-06,22.864583333333332,,74.72916666666667
511,2010-02-07,23.442708333333332,,76.3125
511,2010-02-08,22.005208333333332,,75.1875
511,2010-02-09,14.552083333333334,,66.53645833333333
511,2010-02-10,22.895833333333332,,73.84375
511,2010-02-11,23.380208333333332,,76.13020833333333
511,2010-02-12,23.515625,,76.5625
511,2010-02-13,23.489583333333332,,76.5
511,2010-02-14,23.442708333333332,,75.953125
511,2010-02-15,23.234375,,75.27604166666666
511,2010-02-16,20.796875,,67.5
511,2010-02-17,23.630208333333332,,74.89583333333333
511,2010-02-18,23.453125,,74.38541666666666
511,2010-02-19,23.4375,,74.66666666666666
511,2010-02-20,23.203125,,74.02604166666666
511,2010-02-21,23.244791666666668,,74.54166666666667
511,2010-02-22,22.880208333333332,,74.51041666666667
511,2010-02-23,22.104166666666668,,72.9375
511,2010-02-24,23.010416666666668,,75.11458333333333
511,2010-02-25,22.859375,,74.25554166666666
511,2010-02-26,22.6875,,73.1875
511,2010-02-27,22.677083333333332,,72.99445833333333
511,2010-02-28,22.817708333333332,,73.22916666666667
511,2010-03-01,23.15625,,74.16666666666666
511,2010-03-02,23.21875,,74.28125
511,2010-03-03,23.182291666666668,,74.28679166666667
511,2010-03-04,23.083333333333332,,74.598625
511,2010-03-05,23.572916666666668,,74.46875
511,2010-03-06,13.901041666666666,,65.25554166666667
511,2010-03-07,2.5729166666666665,,54.197916666666664
511,2010-03-08,0.9322916666666666,,52.15625
511,2010-03-09,0.0,,49.92154166666666
511,2010-03-10,0.046875,,49.620125
511,2010-03-11,0.010416666666666666,,49.067375
511,2010-03-12,0.020833333333333332,,49.0625
511,2010-03-13,0.0,,47.989583333333336
511,2010-03-14,0.010416666666666666,,0.2916666666666667
511,2010-03-15,0.0,,14.536791666666666
511,2010-03-16,0.0,,44.041666666666664
511,2010-03-17,2.5,,44.489583333333336
511,2010-03-18,0.0,,26.973625
511,2010-03-19,0.0,,27.140958333333334
511,2010-03-20,0.005208333333333333,,28.286125
511,2010-03-21,0.0,,26.870125
511,2010-03-22,0.0,,25.202791666666666
511,2010-03-23,0.0,,27.578458333333334
511,2010-03-24,0.0,,42.853833333333334
511,2010-03-25,0.0,,42.28125
511,2010-03-26,0.015625,,31.708333333333332
511,2010-03-27,0.005208333333333333,,12.5625
511,2010-03-28,0.0,,10.21875
511,2010-03-29,14.791666666666666,,32.864583333333336
511,2010-03-30,8.114583333333334,,15.416666666666668
511,2010-03-31,15.104166666666666,,15.151041666666666
511,2010-04-01,5.828125,,19.854166666666664
511,2010-04-02,0.08854166666666667,,20.1875
511,2010-04-03,0.08854166666666667,,20.046875
511,2010-04-04,0.08854166666666667,,22.848958333333336
511,2010-04-05,0.09375,,21.270833333333332
511,2010-04-06,0.09375,,20.65625
511,2010-04-07,0.08854166666666667,,17.916666666666668
511,2010-04-08,0.09375,,21.171875
511,2010-04-09,0.08854166666666667,,16.614583333333336
511,2010-04-10,0.09375,,2.072916666666667
511,2010-04-11,0.08854166666666667,,0.234375
511,2010-04-12,0.08854166666666667,,0.234375
511,2010-04-13,0.09375,,0.22916666666666666
511,2010-04-14,0.08854166666666667,,0.22916666666666669
511,2010-04-15,0.09375,,0.22916666666666666
511,2010-04-16,0.08854166666666667,,0.21875
511,2010-04-17,0.08854166666666667,,0.22916666666666669
511,2010-04-18,0.08854166666666667,,0.22395833333333331
511,2010-04-19,0.09375,,0.22395833333333334
511,2010-04-20,0.09375,,0.21354166666666669
511,2010-04-21,0.09375,,0.21354166666666669
511,2010-04-22,0.08854166666666667,,0.22395833333333331
511,2010-04-23,0.09375,,0.22916666666666666
511,2010-04-24,0.08854166666666667,,0.21875
511,2010-04-25,0.08854166666666667,,0.21875
511,2010-04-26,0.09895833333333333,,0.171875
511,2010-04-27,0.09375,,0.16666666666666669
511,2010-04-28,0.08854166666666667,,0.15104166666666669
511,2010-04-29,0.08854166666666667,,0.15104166666666669
511,2010-04-30,0.08854166666666667,,0.15104166666666669
511,2010-05-01,0.08333333333333333,,0.13541666666666666
511,2010-05-02,0.08333333333333333,,0.13541666666666666
511,2010-05-03,3.5572916666666665,,3.598958333333333
511,2010-05-04,0.08854166666666667,,0.14583333333333334
511,2010-05-05,0.08854166666666667,,0.13541666666666669
511,2010-05-06,0.08854166666666667,,0.140625
511,2010-05-07,9.432291666666666,,9.473958333333332
511,2010-05-08,0.09375,,0.15104166666666666
511,2010-05-09,0.08854166666666667,,0.15104166666666669
511,2010-05-10,19.510416666666668,,30.973958333333336
511,2010-05-11,22.354166666666668,,59.44791666666667
511,2010-05-12,24.260416666666668,,58.04166666666667
511,2010-05-13,24.786458333333332,,52.95833333333333
511,2010-05-14,13.302083333333334,,28.739583333333336
511,2010-05-15,23.369791666666668,,49.973958333333336
511,2010-05-16,24.645833333333332,,52.510416666666664
511,2010-05-17,23.307291666666668,,49.953125
511,2010-05-18,20.588541666666668,,60.44791666666667
511,2010-05-19,19.583333333333332,,62.0625
511,2010-05-20,20.291666666666668,,61.40625
511,2010-05-21,19.453125,,58.9375
511,2010-05-22,18.697916666666668,,52.890625
511,2010-05-23,19.296875,,49.69270833333333
511,2010-05-24,19.125,,49.125
511,2010-05-25,4.765625,,41.229166666666664
511,2010-05-26,0.09895833333333333,,38.71875
511,2010-05-27,0.09375,,38.760416666666664
511,2010-05-28,0.09895833333333333,,39.94791666666667
511,2010-05-29,0.140625,,39.53125
511,2010-05-30,0.09895833333333333,,40.71875
511,2010-05-31,0.078125,,36.760416666666664
511,2010-06-01,0.0,,38.666666666666664
511,2010-06-02,0.0,,38.0625
511,2010-06-03,0.0,,39.291666666666664
511,2010-06-04,0.005208333333333333,,39.171875
511,2010-06-05,0.0,,31.875
511,2010-06-06,0.005208333333333333,,43.99479166666667
511,2010-06-07,0.0,,44.864583333333336
511,2010-06-08,0.0,,45.583333333333336
511,2010-06-09,0.005208333333333333,,44.93229166666667
511,2010-06-10,0.0,,43.614583333333336
511,2010-06-11,0.20833333333333334,,42.83854166666667
511,2010-06-12,0.0,,39.765625
511,2010-06-13,0.005208333333333333,,40.973958333333336
511,2010-06-14,0.005208333333333333,,46.515625
511,2010-06-15,0.005208333333333333,,32.973958333333336
511,2010-06-16,0.005208333333333333,,35.765625
511,2010-06-17,0.005208333333333333,,33.9375
511,2010-06-18,0.005208333333333333,,25.692708333333332
511,2010-06-19,0.0,,24.130208333333332
511,2010-06-20,0.0,,24.557291666666668
511,2010-06-21,0.0,,23.869791666666668
511,2010-06-22,0.005208333333333333,,25.208333333333332
511,2010-06-23,0.005208333333333333,,24.192708333333332
511,2010-06-24,0.0,,24.046875
511,2010-06-25,0.005208333333333333,,25.421875
511,2010-06-26,0.005208333333333333,,25.729166666666664
511,2010-06-27,0.0,,23.96875
511,2010-06-28,0.005208333333333333,,24.067708333333332
511,2010-06-29,0.0,,25.848958333333332
511,2010-06-30,0.0,,27.135416666666668
511,2010-07-01,0.0,,26.723958333333332
511,2010-07-02,0.0,,8.135416666666666
511,2010-07-03,0.010416666666666666,,19.046875
511,2010-07-04,0.0,,24.671875
511,2010-07-05,0.0,,23.6875
511,2010-07-06,0.0,,23.270833333333332
511,2010-07-07,0.0,,23.109375
511,2010-07-08,0.0,,22.640625
511,2010-07-09,0.0,,23.067708333333332
511,2010-07-10,0.0,,24.5
511,2010-07-11,0.0,,24.8125
511,2010-07-12,0.0,,23.822916666666668
511,2010-07-13,0.0,,23.838541666666668
511,2010-07-14,0.010416666666666666,,24.15625
511,2010-07-15,0.0,,23.921875
511,2010-07-16,0.0,,23.322916666666668
511,2010-07-17,0.0,,23.260416666666668
511,2010-07-18,0.0,,24.072916666666668
511,2010-07-19,0.005208333333333333,,23.6875
511,2010-07-20,0.0,,24.09375
511,2010-07-21,0.0,,23.984375
511,2010-07-22,0.0,,23.71875
511,2010-07-23,0.0,,24.369791666666668
511,2010-07-24,0.0,,23.442708333333332
511,2010-07-25,0.0,,24.604166666666668
511,2010-07-26,0.0,,25.171875
511,2010-07-27,0.005208333333333333,,24.869791666666664
511,2010-07-28,0.0,,23.791666666666668
511,2010-07-29,0.0,,24.880208333333332
511,2010-07-30,0.0,,25.739583333333332
511,2010-07-31,0.0,,25.34375
511,2010-08-01,0.0,,24.380208333333332
511,2010-08-02,0.0,,23.416666666666668
511,2010-08-03,0.0,,22.671875
511,2010-08-04,0.005208333333333333,,23.135416666666664
511,2010-08-05,0.0,,15.609375
511,2010-08-06,0.005208333333333333,,18.526041666666664
511,2010-08-07,0.0,,25.770833333333332
511,2010-08-08,0.0,,24.625
511,2010-08-09,0.0,,23.932291666666668
511,2010-08-10,0.005208333333333333,,24.119791666666664
511,2010-08-11,0.0,,23.958333333333332
511,2010-08-12,0.0,,24.427083333333332
511,2010-08-13,0.0,,24.71875
511,2010-08-14,0.0,,24.380208333333332
511,2010-08-15,0.0,,24.510416666666668
511,2010-08-16,0.0,,22.354166666666668
511,2010-08-17,0.0,,25.151041666666668
511,2010-08-18,0.0,,24.885416666666668
511,2010-08-19,0.005208333333333333,,24.197916666666664
511,2010-08-20,0.0,,22.880208333333332
511,2010-08-21,0.0,,24.916666666666668
511,2010-08-22,0.0,,25.088541666666668
511,2010-08-23,0.0,,22.90625
511,2010-08-24,0.005208333333333333,,22.119791666666664
511,2010-08-25,0.005208333333333333,,23.0
511,2010-08-26,0.0,,24.25
511,2010-08-27,0.0,,25.8125
511,2010-08-28,0.005208333333333333,,24.057291666666664
511,2010-08-29,0.0,,23.541666666666668
511,2010-08-30,0.0,,23.390625
511,2010-08-31,0.005208333333333333,,23.057291666666664
511,2010-09-01,0.0,,23.59375
511,2010-09-02,0.005208333333333333,,23.671875
511,2010-09-03,0.0,,23.354166666666668
511,2010-09-04,0.005208333333333333,,24.755208333333332
511,2010-09-05,0.0,,26.359375
511,2010-09-06,0.0,,25.755208333333332
511,2010-09-07,0.0,,23.645833333333332
511,2010-09-08,0.0,,25.78125
511,2010-09-09,0.0,,25.119791666666668
511,2010-09-10,0.0,,21.947916666666668
511,2010-09-11,0.0,,21.671875
511,2010-09-12,0.005208333333333333,,22.307291666666664
511,2010-09-13,0.010416666666666666,,1.8229166666666667
511,2010-09-14,0.0,,3.4010416666666665
511,2010-09-15,0.0,,1.0104166666666667
511,2010-09-16,0.005208333333333333,,0.9635416666666667
511,2010-09-17,0.005208333333333333,,16.9375
511,2010-09-18,0.0,,25.317708333333332
511,2010-09-19,0.010416666666666666,,24.453125
511,2010-09-20,0.0,,25.223958333333332
511,2010-09-21,0.0,,25.25
511,2010-09-22,0.0,,25.489583333333332
511,2010-09-23,0.0,,24.125
511,2010-09-24,0.0,,22.526041666666668
511,2010-09-25,0.005208333333333333,,26.260416666666664
511,2010-09-26,0.0,,27.526041666666668
511,2010-09-27,0.0,,26.583333333333332
511,2010-09-28,0.0,,24.927083333333332
511,2010-09-29,0.0,,26.557291666666668
511,2010-09-30,0.0,,24.359375
511,2010-10-01,0.0,,22.776041666666668
511,2010-10-02,0.0,,22.828125
511,2010-10-03,0.0,,22.979166666666668
511,2010-10-04,0.0,,25.005208333333332
511,2010-10-05,0.0,,10.973958333333334
511,2010-10-06,0.005208333333333333,,19.833333333333332
511,2010-10-07,0.0,,27.145833333333332
511,2010-10-08,0.0,,27.078125
511,2010-10-09,0.0,,27.713541666666668
511,2010-10-10,0.005208333333333333,,27.765625
511,2010-10-11,0.0,,17.020833333333332
511,2010-10-12,0.0,,1.6041666666666667
511,2010-10-13,0.005208333333333333,,0.265625
511,2010-10-14,0.0,,0.21875
511,2010-10-15,0.0,,0.21354166666666666
511,2010-10-16,0.0,,0.20833333333333334
511,2010-10-17,0.0,,0.21354166666666666
511,2010-10-18,0.0,,0.21354166666666666
511,2010-10-19,0.0,,0.21354166666666666
511,2010-10-20,0.0,,0.21354166666666666
511,2010-10-21,0.005208333333333333,,0.21875
511,2010-10-22,0.0,,0.21354166666666666
511,2010-10-23,0.0,,0.22395833333333334
511,2010-10-24,0.0,,0.20833333333333334
511,2010-10-25,0.0,,0.203125
511,2010-10-26,0.0,,0.19270833333333334
511,2010-10-27,0.0,,0.19270833333333334
511,2010-10-28,0.0,,0.21354166666666666
511,2010-10-29,0.0,,0.21354166666666666
511,2010-10-30,0.0,,0.20833333333333334
511,2010-10-31,0.0,,0.21354166666666666
511,2010-11-01,0.010416666666666666,,0.21354166666666666
511,2010-11-02,0.005208333333333333,,0.21875
511,2010-11-03,0.0,,0.21875
511,2010-11-04,0.0,,0.20833333333333334
511,2010-11-05,0.0,,0.20833333333333334
511,2010-11-06,0.0,,0.20833333333333334
511,2010-11-07,0.0,,0.20833333333333334
511,2010-11-08,0.0,,0.21354166666666666
511,2010-11-09,0.005208333333333333,,0.20833333333333334
511,2010-11-10,0.0,,0.20833333333333334
511,2010-11-11,0.0,,0.20833333333333334
511,2010-11-12,0.0,,0.21354166666666666
511,2010-11-13,0.005208333333333333,,0.20833333333333334
511,2010-11-14,0.0,,0.20833333333333334
511,2010-11-15,0.0,,0.20833333333333334
511,2010-11-16,0.005208333333333333,,0.20833333333333334
511,2010-11-17,0.0,,0.20833333333333334
511,2010-11-18,0.0,,0.21354166666666666
511,2010-11-19,0.0,,0.20833333333333334
511,2010-11-20,0.0,,0.21354166666666666
511,2010-11-21,0.0,,0.21354166666666666
511,2010-11-22,0.0,,0.203125
511,2010-11-23,0.0,,0.203125
511,2010-11-24,0.0,,0.21354166666666666
511,2010-11-25,0.0,,0.20833333333333334
511,2010-11-26,0.0,,0.21354166666666666
511,2010-11-27,0.0,,0.21875
511,2010-11-28,0.0,,0.203125
511,2010-11-29,0.0,,0.20833333333333334
511,2010-11-30,0.005208333333333333,,0.203125
511,2010-12-01,0.0,,0.19791666666666666
511,2010-12-02,0.0,,0.203125
511,2010-12-03,0.0,,0.20833333333333334
511,2010-12-04,0.0,,0.21875
511,2010-12-05,0.0,,0.20833333333333334
511,2010-12-06,0.0,,0.21354166666666666
511,2010-12-07,0.0,,0.20833333333333334
511,2010-12-08,0.0,,0.20833333333333334
511,2010-12-09,0.0,,0.21875
511,2010-12-10,0.0,,0.21354166666666666
511,2010-12-11,0.0,,0.21354166666666666
511,2010-12-12,0.0,,0.203125
511,2010-12-13,0.0,,0.20833333333333334
511,2010-12-14,0.0,,0.21875
511,2010-12-15,0.0,,0.21875
511,2010-12-16,0.0,,0.21354166666666666
511,2010-12-17,0.0,,0.21354166666666666
511,2010-12-18,0.0,,0.20833333333333334
511,2010-12-19,0.0,,0.20833333333333334
511,2010-12-20,0.0,,0.21354166666666666
511,2010-12-21,0.0,,0.20833333333333334
511,2010-12-22,0.0,,0.20833333333333334
511,2010-12-23,0.0,,0.20833333333333334
511,2010-12-24,0.0,,0.21354166666666666
511,2010-12-25,0.0,,0.21354166666666666
511,2010-12-26,0.0,,0.21354166666666666
511,2010-12-27,0.0,,0.21354166666666666
511,2010-12-28,0.0,,0.21354166666666666
511,2010-12-29,0.0,,0.21354166666666666
511,2010-12-30,0.0,,0.20833333333333334
511,2010-12-31,0.0,,0.21354166666666666
511,2011-01-01,0.0,,0.203125
511,2011-01-02,0.005208333333333333,,0.203125
511,2011-01-03,0.0,,0.21354166666666666
511,2011-01-04,0.0,,0.21354166666666666
511,2011-01-05,0.0,,0.21354166666666666
511,2011-01-06,0.0,,0.20833333333333334
511,2011-01-07,0.0,,0.21354166666666666
511,2011-01-08,0.0,,0.21875
511,2011-01-09,0.005208333333333333,,0.171875
511,2011-01-10,0.0,,0.0
511,2011-01-11,0.005208333333333333,,0.0
511,2011-01-12,0.0,,0.0
511,2011-01-13,0.0,,0.0
511,2011-01-14,0.0,,0.0
511,2011-01-15,0.0,,0.0
511,2011-01-16,0.005208333333333333,,0.005208333333333333
511,2011-01-17,0.0,,0.0
511,2011-01-18,0.0,,0.0
511,2011-01-19,0.0,,0.0
511,2011-01-20,0.0,,0.0
511,2011-01-21,0.0,,0.0
511,2011-01-22,0.0,,0.0
511,2011-01-23,0.0,,0.0
511,2011-01-24,0.0,,0.0
511,2011-01-25,0.0,,0.0
511,2011-01-26,0.0,,0.0
511,2011-01-27,0.0,,0.0
511,2011-01-28,0.0,,0.0
511,2011-01-29,0.0,,0.0
511,2011-01-30,0.0,,0.0
511,2011-01-31,0.0,,0.0
511,2011-02-01,0.0,,0.0
511,2011-02-02,0.0,,0.005208333333333333
511,2011-02-03,0.0,,0.0
511,2011-02-04,0.0,,0.0
511,2011-02-05,0.0,,0.005208333333333333
511,2011-02-06,0.0,,0.0
511,2011-02-07,0.0,,0.005208333333333333
511,2011-02-08,0.0,,0.0
511,2011-02-09,0.0,,0.0
511,2011-02-10,0.005208333333333333,,0.005208333333333333
511,2011-02-11,0.005208333333333333,,0.0
511,2011-02-12,0.0,,0.005208333333333333
511,2011-02-13,0.0,,0.0
511,2011-02-14,0.0,,0.0
511,2011-02-15,0.0,,0.0
511,2011-02-16,0.0,,0.0
511,2011-02-17,0.0,,0.0
511,2011-02-18,0.0,,0.005208333333333333
511,2011-02-19,0.0,,0.0
511,2011-02-20,0.0,,0.0
511,2011-02-21,0.0,,0.0
511,2011-02-22,0.0,,0.0
511,2011-02-23,0.0,,0.0
511,2011-02-24,0.0,,0.0
511,2011-02-25,0.0,,0.0
511,2011-02-26,0.0,,0.0
511,2011-02-27,0.0,,0.0
511,2011-02-28,0.0,,0.0
511,2011-03-01,0.0,,0.0
511,2011-03-02,0.0,,0.0
511,2011-03-03,0.0,,0.0
511,2011-03-04,0.0,,0.0
511,2011-03-05,0.005208333333333333,,0.0
511,2011-03-06,0.0,,0.0
511,2011-03-07,0.0,,0.0
511,2011-03-08,0.0,,0.0
511,2011-03-09,0.0,,0.0
511,2011-03-10,0.0,,0.0
511,2011-03-11,0.0,,0.0
511,2011-03-12,0.0,,0.0
511,2011-03-13,0.005208333333333333,,0.0
511,2011-03-14,0.0,,0.0
511,2011-03-15,0.0,,0.0
511,2011-03-16,0.0,,0.0
511,2011-03-17,0.0,,0.0
511,2011-03-18,0.0,,0.0
511,2011-03-19,0.0,,0.0
511,2011-03-20,0.0,,0.0
511,2011-03-21,0.0,,0.0
511,2011-03-22,0.0,,0.0
511,2011-03-23,0.0,,0.0
511,2011-03-24,0.005208333333333333,,0.005208333333333333
511,2011-03-25,0.0,,0.0
511,2011-03-26,0.0,,0.0
511,2011-03-27,0.0,,0.005208333333333333
511,2011-03-28,0.0,,0.0
511,2011-03-29,0.0,,0.0
511,2011-03-30,0.005208333333333333,,0.0
511,2011-03-31,0.005208333333333333,,0.0
511,2011-04-01,0.0,,0.0
511,2011-04-02,0.0,,0.0
511,2011-04-03,0.0,,0.0
511,2011-04-04,0.0,,0.0
511,2011-04-05,0.0,,0.0
511,2011-04-06,0.0,,0.0
511,2011-04-07,0.0,,0.0
511,2011-04-08,0.0,,0.0
511,2011-04-09,0.0,,0.0
511,2011-04-10,0.0,,0.0
511,2011-04-11,0.0,,0.0
511,2011-04-12,0.0,,0.0
511,2011-04-13,0.0,,0.0
511,2011-04-14,0.005208333333333333,,0.0
511,2011-04-15,0.0,,0.0
511,2011-04-16,0.0,,0.0
511,2011-04-17,0.015625,,0.0
511,2011-04-18,0.0,,0.0
511,2011-04-19,0.0,,0.0
511,2011-04-20,0.0,,0.11979166666666667
511,2011-04-21,0.0,,0.19270833333333334
511,2011-04-22,0.0,,0.19270833333333334
511,2011-04-23,0.0,,0.17708333333333334
511,2011-04-24,0.0,,0.18229166666666666
511,2011-04-25,0.0,,0.17708333333333334
511,2011-04-26,0.0,,0.16666666666666666
511,2011-04-27,0.0,,0.09895833333333333
511,2011-04-28,0.0,,0.08854166666666667
511,2011-04-29,0.0,,0.109375
511,2011-04-30,0.0,,0.11458333333333333
511,2011-05-01,0.0,,0.11979166666666667
511,2011-05-02,0.005208333333333333,,0.140625
511,2011-05-03,0.0,,0.13020833333333334
511,2011-05-04,0.0,,0.13020833333333334
511,2011-05-05,0.0,,0.13020833333333334
511,2011-05-06,0.0,,0.13020833333333334
511,2011-05-07,0.0,,0.140625
511,2011-05-08,0.0,,0.140625
511,2011-05-09,0.0,,0.125
511,2011-05-10,0.0,,0.109375
511,2011-05-11,0.0,,0.125
511,2011-05-12,0.0,,0.14583333333333334
511,2011-05-13,0.0,,0.11458333333333333
511,2011-05-14,0.0,,0.057291666666666664
511,2011-05-15,0.0,,0.08333333333333333
511,2011-05-16,0.0,,0.140625
511,2011-05-17,0.0,,0.09895833333333333
511,2011-05-18,0.0,,0.0625
511,2011-05-19,0.0,,0.057291666666666664
511,2011-05-20,0.005208333333333333,,0.052083333333333336
511,2011-05-21,0.010416666666666666,,0.03125
511,2011-05-22,0.0,,0.046875
511,2011-05-23,0.0,,0.052083333333333336
511,2011-05-24,0.0,,0.041666666666666664
511,2011-05-25,0.0,,0.046875
511,2011-05-26,0.0,,0.041666666666666664
511,2011-05-27,0.0,,0.036458333333333336
511,2011-05-28,0.0,,0.020833333333333332